O3B FM10 (40348 NORAD) Tracking and Keplerian Element Data

This shows tracking and keplerian element data for the satellite.

Feedback or suggestion? Click here.




ElementValue
Catalog40348
NameO3B FM10
Epoch Orbit6540
Epoch Day198.93854625
Epoch Year2018
RAAN11.7914
Inclination0.0359
Eccentricity0.0002595
Argument of Perigee102.4483
Mean Anonmoly245.7838
Mean Motion5.00114314
Decay Rate-2.8E-07
L11 40348U 14083A 18198.93854625 -.00000028 00000-0 00000-0 0 9995
L22 40348 0.0359 11.7914 0002595 102.4483 245.7838 5.00114314 65405

Live tracking and technical data element details for O3B FM10 (NORAD 40348). O3B FM10 can be tracked NOW for your location showing map with azimuth and elevation plus other details from your city location.

Track the satellite on the map from your city or location and see movement details for azimuth, elevation, latitude, longitude, range, height, and movement on the map or in text.







IsCatalogInMostPopularTable: catalog: 40348, numindb: 55
Update: records affected: 1



GetName: 40348 O3B FM10

Hit Count: updated at: Thu, 19 Jul 2018 03:56:40 GMT